EW5246 Weather Reports


time (UTC)temp
F
wind
direction
speed
knots
gust
knots
rain 1hr
in
rain 24hr
in
rain mn
in
humidity
%
barometer
mb
20260506111554 43 307 0.0 5.2 0.00 1.39 0.41 97 1008.8
20260506110038 43 23 0.9 5.2 0.01 1.39 0.41 97 1008.2
20260506104542 44 330 3.5 7.8 0.01 1.39 0.41 97 1008.1
20260506103042 44 278 0.0 1.7 0.03 1.39 0.41 97 1007.8
20260506101534 44 64 0.0 1.7 0.06 1.39 0.41 97 1007.3
20260506100032 44 333 0.9 3.5 0.06 1.38 0.40 97 1007.9
20260506094531 43 1 0.0 3.5 0.07 1.38 0.40 97 1008.3
20260506093031 43 310 0.9 2.6 0.05 1.36 0.38 97 1008.4
20260506091530 43 308 0.0 3.5 0.04 1.33 0.35 97 1008.3
20260506090029 43 307 0.0 1.7 0.05 1.32 0.34 97 1007.9
20260506084606 43 5 0.0 1.7 0.06 1.31 0.33 97 1007.7
20260506083028 43 335 0.0 0.0 0.09 1.31 0.33 97 1008.0
20260506081537 43 300 0.9 4.3 0.09 1.29 0.31 97 1008.4
20260506073025 43 308 0.9 5.2 0.06 1.22 0.24 97 1007.7
20260506071526 43 295 0.9 4.3 0.06 1.20 0.22 97 1007.6
20260506061518 44 317 0.0 2.6 0.08 1.13 0.16 97 1007.7
20260506044506 45 335 1.7 5.2 0.06 1.02 0.04 97 1008.7
20260506043002 46 8 1.7 5.2 0.07 1.01 0.03 97 1008.7
20260506041608 46 309 0.9 2.6 0.07 1.00 0.02 97 1008.8
20260506040059 47 311 0.0 3.5 0.07 0.98 0.00 97 1008.9
20260506034557 47 323 0.0 4.3 0.09 0.96 0.96 97 1009.1
20260506033055 47 320 1.7 3.5 0.11 0.94 0.94 97 1009.1
20260506031555 47 275 0.0 1.7 0.14 0.93 0.93 97 1009.4
20260506030053 47 275 0.0 3.5 0.14 0.90 0.90 97 1009.4
20260506024552 47 246 0.0 1.7 0.16 0.87 0.87 97 1009.3
20260506023104 47 35 0.0 0.9 0.18 0.83 0.83 97 1008.9
20260506021609 47 34 0.0 1.7 0.20 0.79 0.79 97 1008.8
20260506020050 47 34 0.0 0.0 0.20 0.76 0.76 97 1008.8
20260506014549 47 34 0.0 1.7 0.17 0.70 0.70 97 1008.9
20260506013059 47 4 0.0 2.6 0.13 0.65 0.65 96 1008.8
20260506011608 47 23 0.0 4.3 0.07 0.59 0.59 96 1008.5
20260506010014 47 52 0.0 2.6 0.03 0.55 0.55 96 1008.3
20260506004513 47 53 0.0 1.7 0.05 0.53 0.53 96 1008.4
20260506003013 47 56 0.9 2.6 0.07 0.52 0.52 96 1008.3
20260506001510 47 55 0.0 2.6 0.13 0.52 0.52 96 1008.2
20260506000009 47 59 0.9 2.6 0.26 0.52 0.52 96 1008.5
20260505234509 47 348 0.9 2.6 0.24 0.48 0.48 96 1008.6
20260505233007 47 47 0.0 4.3 0.22 0.45 0.45 95 1008.4
20260505231503 49 17 5.2 12.2 0.14 0.37 0.37 95 1008.6
20260505230059 49 328 2.6 6.1 0.04 0.26 0.26 95 1008.3
20260505224603 50 16 1.7 5.2 0.02 0.24 0.24 95 1008.2
20260505223057 50 49 1.7 3.5 0.01 0.23 0.23 95 1008.3
20260505221555 51 41 0.9 3.5 0.09 0.23 0.23 94 1008.3
20260505220058 52 314 3.5 7.0 0.13 0.22 0.22 93 1008.4
20260505214554 56 285 2.6 6.1 0.14 0.22 0.22 95 1008.1
20260505213044 56 275 2.6 5.2 0.20 0.22 0.22 94 1008.1
20260505211544 56 263 3.5 6.1 0.11 0.12 0.12 94 1008.4
20260505210045 56 274 0.9 5.2 0.08 0.09 0.09 93 1007.8
20260505204541 56 328 3.5 6.1 0.07 0.08 0.08 92 1007.8
20260505203053 58 297 4.3 8.7 0.01 0.02 0.02 88 1007.9
20260505201541 60 310 1.7 5.2 0.00 0.01 0.01 85 1007.6
20260505200032 61 290 3.5 6.1 0.01 0.01 0.01 83 1007.8
20260505194531 61 278 3.5 6.1 0.01 0.01 0.01 81 1007.8
20260505193033 61 263 1.7 3.5 0.01 0.01 0.01 80 1007.7
20260505191529 62 212 0.0 6.1 0.01 0.01 0.01 78 1008.1
20260505190033 63 276 0.9 7.0 0.00 0.00 0.00 72 1008.2
20260505184535 64 252 1.7 6.1 0.00 0.00 0.00 70 1008.2
20260505183028 64 233 0.9 7.8 0.00 0.00 0.00 68 1008.2
20260505181533 64 216 2.6 13.9 0.00 0.00 0.00 67 1008.1
20260505180025 65 271 5.2 10.4 0.00 0.00 0.00 67 1008.2
20260505174532 65 213 2.6 7.0 0.00 0.00 0.00 66 1008.0
20260505173022 65 238 4.3 13.9 0.00 0.00 0.00 65 1007.9
20260505171521 67 256 5.2 12.2 0.00 0.00 0.00 63 1007.8
20260505170021 66 242 5.2 14.8 0.00 0.00 0.00 62 1007.6
20260505164520 67 271 7.8 14.8 0.00 0.00 0.00 60 1007.6
20260505163021 68 214 6.1 11.3 0.00 0.00 0.00 59 1007.5
20260505161518 69 210 3.5 12.2 0.00 0.00 0.00 59 1007.5
20260505153011 67 257 3.5 11.3 0.00 0.00 0.00 62 1006.8
20260505151508 66 253 4.3 9.6 0.00 0.00 0.00 64 1007.1
20260505140114 64 199 2.6 11.3 0.00 0.00 0.00 71 1006.7
20260505124554 60 199 0.9 8.7 0.00 0.00 0.00 78 1006.6
20260505123051 60 208 3.5 7.0 0.00 0.00 0.00 77 1006.5
20260505121608 60 203 4.3 10.4 0.00 0.00 0.00 76 1006.5
20260505120048 60 167 0.9 6.1 0.00 0.00 0.00 75 1005.9
20260505114546 60 204 0.0 8.7 0.00 0.00 0.00 75 1006.0
20260505113042 62 227 3.5 12.2 0.00 0.00 0.00 70 1006.1